Weather History for Reno, NV

Change the Weather History Date:

Saturday, December 22, 2012

  Actual Average Record
Temperature  
Mean Temperature 39 °F 34 °F  
Max Temperature 45 °F 45 °F 60 °F (1915)
Min Temperature 32 °F 24 °F -13 °F (1990)
Degree Days  
Heating Degree Days 26 31  
Month to date heating degree days 556 645  
Since 1 July heating degree days 1355 1748  
Cooling Degree Days 0 0  
Month to date cooling degree days 0 0  
Year to date cooling degree days 1272 839  
Moisture  
Dew Point 31 °F    
Average Humidity 71    
Maximum Humidity 92    
Minimum Humidity 49    
Precipitation  
Precipitation 0.33 in 0.03 in 1.36 in (1964)
Month to date precipitation 1.34 0.69  
Year to date precipitation 5.00 7.06  
Snow  
Snow 1.40 in 0.20 in 4.50 in (1971)
Month to date snowfall 1.8 2.9  
Since 1 July snowfall 2.6 6.4  
Snow Depth 0.00 in    
Sea Level Pressure  
Sea Level Pressure 29.84 in    
Wind  
Wind Speed 11 mph (SW)    
Max Wind Speed 40 mph    
Max Gust Speed 48 mph    
Visibility 5 miles    
Events Fog , Rain , Snow    
T = Trace of Precipitation, MM = Missing Value Source: NWS Daily Summary

Daily Weather History Graph

Daily Weather History Graph

Search for Another Location

Airport:

Trip Planner

Search our weather history database for the weather conditions in past years. The results will help you decide how hot, cold, wet, or windy it might be!

Date:

Astronomy

Dec. 22, 2012 Rise Set
Actual Time 7:16 AM PST 4:39 PM PST
Civil Twilight 6:46 AM PST 5:09 PM PST
Nautical Twilight 6:12 AM PST 5:43 PM PST
Astronomical Twilight 5:39 AM PST 6:16 PM PST
Moon 12:58 PM PST (12/22) 2:07 AM PST (12/22)
Length of Visible Light 10h 23m
Length of Day
9h 22m
Waxing Gibbous, 74% of the Moon is Illuminated
Dec 22
Waxing Gibbous
Dec 28
Full
Jan 4
Last Quarter
Jan 11
New
Jan 18
First Quarter

Hourly Weather History & Observations

Time (PST) Temp. Windchill Dew Point Humidity Pressure Visibility Wind Dir Wind Speed Gust Speed Precip Events Conditions
12:55 AM 41.0 °F 31.9 °F 28.0 °F 60% 29.76 in 10.0 mi South 19.6 mph 32.2 mph N/A   Partly Cloudy
1:55 AM 42.1 °F 33.9 °F 28.9 °F 60% 29.77 in 10.0 mi South 17.3 mph - N/A   Scattered Clouds
2:55 AM 43.0 °F 34.8 °F 32.0 °F 65% 29.75 in 10.0 mi SW 18.4 mph 31.1 mph 0.00 in Rain Light Rain
3:55 AM 39.9 °F 30.5 °F 34.0 °F 79% 29.75 in 10.0 mi SSW 19.6 mph 27.6 mph 0.00 in Rain Light Rain
4:55 AM 39.9 °F 30.8 °F 33.1 °F 77% 29.75 in 10.0 mi South 18.4 mph - 0.00 in   Overcast
5:55 AM 39.0 °F 30.3 °F 30.9 °F 73% 29.75 in 10.0 mi SSW 16.1 mph - 0.00 in   Overcast
6:55 AM 39.0 °F 32.3 °F 30.9 °F 73% 29.74 in 10.0 mi SSW 10.4 mph - 0.00 in   Overcast
7:55 AM 37.0 °F 25.6 °F 32.0 °F 82% 29.73 in 10.0 mi South 24.2 mph 31.1 mph 0.00 in Rain Light Rain
8:12 AM 37.4 °F 28.5 °F 33.8 °F 87% 29.74 in 8.0 mi South 15.0 mph - 0.01 in Snow Light Snow
8:55 AM 37.0 °F 26.7 °F 34.0 °F 89% 29.74 in 4.0 mi SSW 19.6 mph 31.1 mph 0.02 in Rain Rain
9:27 AM 37.4 °F 29.8 °F 35.6 °F 93% 29.79 in 3.0 mi WNW 11.5 mph 19.6 mph 0.03 in Rain Light Rain
9:34 AM 35.6 °F 28.6 °F 35.6 °F 100% 29.80 in 1.5 mi SW 9.2 mph 16.1 mph 0.04 in Rain , Snow Light Rain
9:51 AM 35.6 °F 31.7 °F 35.6 °F 100% 29.81 in 1.8 mi Variable 4.6 mph - 0.09 in Rain , Snow Light Rain
9:55 AM 35.1 °F 31.0 °F 34.0 °F 96% 29.82 in 1.8 mi WNW 4.6 mph 18.4 mph 0.10 in Rain , Snow Light Rain
10:02 AM 35.6 °F 30.7 °F 33.8 °F 93% 29.82 in 2.0 mi NNW 5.8 mph 18.4 mph 0.00 in Rain , Snow Light Rain
10:14 AM 35.6 °F 29.9 °F 33.8 °F 93% 29.82 in 3.0 mi NNW 6.9 mph - 0.00 in Rain , Snow Light Rain
10:50 AM 35.6 °F - 33.8 °F 93% 29.82 in 2.5 mi Calm Calm - 0.01 in Rain , Snow Light Rain
10:55 AM 35.1 °F 29.3 °F 34.0 °F 96% 29.81 in 1.5 mi Variable 6.9 mph - 0.02 in Rain , Snow Light Rain
11:22 AM 33.8 °F 23.9 °F 33.8 °F 100% 29.82 in 0.8 mi NW 15.0 mph - 0.03 in Snow Light Snow
11:31 AM 33.8 °F 28.6 °F 32.0 °F 93% 29.82 in 0.2 mi Variable 5.8 mph - 0.05 in Fog , Snow Heavy Snow
11:47 AM 33.8 °F 27.7 °F 33.8 °F 100% 29.82 in 0.2 mi WNW 6.9 mph - 0.09 in Fog , Snow Heavy Snow
11:55 AM 33.1 °F 27.7 °F 33.1 °F 100% 29.82 in 0.2 mi West 5.8 mph - 0.11 in Fog , Snow Snow
12:23 PM 33.8 °F - 32.0 °F 93% 29.82 in 0.5 mi Calm Calm - 0.04 in Fog , Snow Snow
12:55 PM 33.1 °F 22.6 °F 28.9 °F 85% 29.84 in 0.5 mi West 16.1 mph 33.4 mph 0.07 in Snow Snow
1:07 PM 32.0 °F 24.8 °F 28.4 °F 87% 29.84 in 0.5 mi West 8.1 mph - 0.00 in Fog , Snow Snow
1:25 PM 33.8 °F 27.7 °F 30.2 °F 87% 29.84 in 1.0 mi WSW 6.9 mph - 0.01 in Snow Light Snow
1:49 PM 32.0 °F 26.4 °F 30.2 °F 93% 29.84 in 2.5 mi SSE 5.8 mph - 0.01 in Snow Light Snow
1:55 PM 32.0 °F - 30.9 °F 96% 29.83 in 2.5 mi Calm Calm - 0.01 in Snow Light Snow
2:04 PM 33.8 °F - 30.2 °F 87% 29.84 in 5.0 mi Calm Calm - 0.00 in Snow Light Snow
2:55 PM 33.1 °F 26.1 °F 30.0 °F 89% 29.83 in 6.0 mi NNE 8.1 mph - 0.00 in Snow Light Snow
3:44 PM 33.8 °F 27.7 °F 28.4 °F 81% 29.85 in 10.0 mi Variable 6.9 mph - 0.00 in   Mostly Cloudy
3:55 PM 35.1 °F 27.9 °F 28.0 °F 76% 29.84 in 6.0 mi WNW 9.2 mph - 0.00 in Snow Light Snow
4:55 PM 34.0 °F 22.4 °F 26.1 °F 73% 29.88 in 4.0 mi West 20.7 mph 36.8 mph 0.00 in Snow Light Snow
5:00 PM 33.8 °F 24.3 °F 26.6 °F 75% 29.88 in 3.0 mi West 13.8 mph 34.5 mph 0.00 in Snow Light Snow
5:55 PM 33.1 °F - 28.0 °F 82% 29.89 in 10.0 mi Calm Calm - 0.00 in   Overcast
6:55 PM 34.0 °F 28.8 °F 28.0 °F 79% 29.92 in 8.0 mi SE 5.8 mph - 0.00 in Snow Light Snow
7:08 PM 33.8 °F - 28.4 °F 81% 29.92 in 4.0 mi Calm Calm - 0.00 in Snow Light Snow
7:24 PM 33.8 °F 29.6 °F 28.4 °F 81% 29.93 in 3.0 mi ESE 4.6 mph - 0.00 in Snow Light Snow
7:33 PM 33.8 °F 30.8 °F 30.2 °F 87% 29.93 in 1.8 mi SE 3.5 mph - 0.00 in Snow Light Snow
7:50 PM 33.8 °F - 30.2 °F 87% 29.93 in 3.0 mi Calm Calm - 0.00 in Snow Light Snow
7:55 PM 33.1 °F - 30.9 °F 92% 29.95 in 3.0 mi Calm Calm - 0.00 in Snow Light Snow
8:55 PM 33.1 °F - 30.9 °F 92% 29.96 in 3.0 mi Calm Calm - 0.00 in Snow Light Snow
9:04 PM 32.0 °F 26.4 °F 30.2 °F 93% 29.95 in 6.0 mi ESE 5.8 mph - 0.00 in Snow Light Snow
9:55 PM 34.0 °F 31.0 °F 27.0 °F 75% 29.96 in 10.0 mi North 3.5 mph - 0.00 in   Mostly Cloudy
10:55 PM 37.0 °F 32.4 °F 25.0 °F 62% 29.97 in 10.0 mi Variable 5.8 mph - N/A   Overcast
11:55 PM 35.1 °F 29.3 °F 25.0 °F 67% 29.94 in 10.0 mi Variable 6.9 mph - N/A   Scattered Clouds